Terug naar catalogus

STARLINK-30759

ActiefCommunicatieVLEO
NORAD 58122·PAYLOAD·🇺🇸 United States

Gelanceerd Oct 22, 2023 vanaf Cape Canaveral Space Force Station

Loading…

Volgende Passages (komende 24 uur)

TLE

VersSource: CelesTrak SupGP

Epoch: Sep 14, 2026, 22:01 UTC

1 58122C 23162E   26257.91784722 -.00000803  00000+0 -29106-4 0  2575
2 58122  43.0022 143.6639 0001326 271.0728 288.2599 15.27573225    15

Volg STARLINK-30759 in realtime met AllMySat

Download on the App Store